www.pogodaiklimat.ru

Погода и климат >> Архив погоды >> Россия >> Тува >> Туран


ПОГОДА в Туране

  • Прогноз погоды в Туране
  • Монитор погоды в Туране

АРХИВ ПОГОДЫ в Туране

Время (UTC), дата Ветер
(напр.,м/с)
 
Видим.   Явления Облачность Т
(С)
Тd
(С)
f
(%)
Тe
(С)
Тes
(С)
Комфортность P
(гПа)
Po
(гПа)
Тmin
(С)
Tmax
(С)
R
(мм)
R24
(мм)
S
(см)
09 19.04 СВ 2 50 км 3/3 1000 м
[Cu hum]
+2.3 -19.6 18 0 +5 1026.2 923.0
12 19.04 Ю 1 50 км 3/0 1000 м
[Ci fib]
+2.7 -21.6 15 +2 +3 1024.1 921.3 +3.3
15 19.04 ЮВ 1 20 км ясно -1.7 -21.6 20 -3 -3 1024.6 920.2
18 19.04 СВ 1 20 км ясно -2.4 -19.9 25 -3 -3 1023.0 918.5
21 19.04 СВ 2 20 км ясно -4.6 -18.7 32 -8 -8 1020.9 915.8
00 20.04 В 1 50 км 8/4 1000 м
[Sc Ci sp]
-4.2 -17.0 36 -6 -5 1019.1 914.4 -4.6
03 20.04 З 1 50 км 6/0
[Ci sp]
+2.8 -21.2 15 +3 +12 опасность
простуды
1014.9 913.1
06 20.04 З 1 50 км 6/0
[Ci sp]
+7.2 -21.0 11 +8 +21 опасность
простуды
1010.4 910.5
09 20.04 ЮЗ 3 50 км 6/3 600 м
[Cb cap Ci sp]
+9.5 -13.6 18 +8 +12 1007.3 908.5
12 20.04 ЮВ 2 50 км 8/8 600 м
[Cb cap]
+9.2 -14.5 17 +8 +9 1016.0 907.3 +10.2
15 20.04 штиль 0 20 км 3/3 1000 м
[Sc]
+2.3 -12.5 33 +2 +2 1009.0 907.6
18 20.04 В 1 20 км 3/3 1000 м
[Sc]
+1.5 -10.5 40 +1 +1 1008.2 906.6
21 20.04 З 1 20 км 3/3 1000 м
[Sc]
+0.7 -9.8 45 -0 -0 1007.5 905.7
00 21.04 ЮЗ 1 50 км 10/6 1000 м
[Sc Cs]
+0.5 -8.2 52 -1 -0 1008.1 906.2 +0.2
03 21.04 В 1 50 км 8/6 600 м
[Cb cap Ci sp]
+4.1 -2.4 63 +3 +7 1006.7 906.4
06 21.04 В 2 50 км 10/10 600 м
[Cb cap]
+8.2 -1.8 49 +7 +7 1005.2 906.3
09 21.04 С 5
{12}
50 км 8/8 600 м
[Cb cap]
+4.8 -5.1 49 +1 +2 1009.2 908.8
12 21.04 С 8-13
{15}
50 км 4/4 600 м
[Cb cap]
+2.6 -9.1 42 -3 -3 1012.6 911.0 +9.7
15 21.04 С 2
{14}
20 км 4/4 600 м
[Cb cap]
+0.4 -9.8 46 -2 -2 1016.8 914.0
18 21.04 З 2 20 км 4/4 600 м
[Cb cap]
-3.6 -9.7 63 -7 -7 1020.9 916.3
21 21.04 С 1 20 км 4/4 600 м
[Cb cap]
-6.0 -10.4 71 -8 -8 1023.7 917.9
00 22.04 штиль 0 50 км ясно -7.2 -10.2 79 -8 -6 1025.4 919.0 -8.9
03 22.04 З 2 50 км 5/5 600 м
[Cb cap]
+3.0 -11.6 33 +1 +6 1021.5 919.2
06 22.04 З 3 50 км 10/10 600 м
[Cb cap]
+4.3 -15.4 22 +2 +2 1020.4 918.5
09 22.04 С 4 50 км 8/8 600 м
[Cb cap]
+4.8 -10.8 31 +2 +3 1020.2 918.6
12 22.04 С 5-10
{10}
50 км 3/3 600 м
[Cb cap]
+3.6 -11.6 32 -1 -0 1021.5 919.4 +6.0
15 22.04 З 1
{10}
20 км ясно -2.6 -11.0 52 -4 -4 1027.0 922.1
18 22.04 З 1 20 км ясно -6.5 -12.0 65 -9 -9 1030.2 923.5
21 22.04 С 1 20 км ясно -7.4 -11.3 74 -10 -10 1030.0 923.0
00 23.04 С 2 50 км ясно -6.8 -11.5 69 -11 -10 1030.6 923.8 -8.7
03 23.04 ЮВ 2 50 км ясно +2.3 -11.3 36 0 +9 1026.1 923.0
06 23.04 ЮВ 2 50 км 6/0
[Ci sp]
+7.3 -14.8 19 +6 +18 опасность
простуды
1021.4 920.5
09 23.04 ЮВ 1 50 км 8/0
[Ci sp]
+9.7 -18.2 12 +10 +18 1017.2 917.5
12 23.04 Ю 1 50 км 3/0
[Ci sp]
+9.6 -18.6 12 +10 +11 1016.0 916.4 +10.2
15 23.04 ЮВ 1 20 км ясно +1.1 -15.9 27 0 0 1019.7 916.8
18 23.04 В 1 20 км ясно -1.3 -15.4 33 -2 -2 1020.7 916.9
21 23.04 З 1 20 км 10/10 600 м
[Cb cap]
-2.3 -13.1 43 -4 -4 1021.2 917.0
00 24.04 штиль 0 50 км 8/8 600 м
[Cb cap]
-2.9 -10.5 56 -3 -3 1021.1 916.6 -3.2
03 24.04 ЮВ 2 50 км 3/3 600 м
[Cb cap]
+6.4 -12.2 25 +5 +12 1016.5 915.7
06 24.04 ЮЗ 2 50 км 4/4 600 м
[Cb cap]
+11.9 -11.6 18 +12 +20 1012.5 913.7
09 24.04 З 7-12
{14}
50 км 8/8 600 м
[Cb cap]
+10.6 -6.7 29 +8 +8 1011.6 912.9
12 24.04 З 3
{12}
50 км 4/4 600 м
[Cb cap]
+9.7 -4.0 38 +8 +8 1012.3 913.3 +12.9
15 24.04 З 1 20 км ясно +2.9 -5.5 54 +2 +2 1017.2 915.3
18 24.04 штиль 0 20 км ясно -3.0 -8.8 64 -4 -4 1020.5 916.2
21 24.04 ЮВ 1 20 км ясно -2.3 -6.6 72 -4 -4 1020.0 916.0
00 25.04 СВ 1 50 км ясно -0.7 -5.6 69 -2 -1 1019.4 916.0 -4.6
03 25.04 ЮВ 2 50 км ясно +7.7 -4.9 40 +6 +16 опасность
простуды
1014.8 914.7
06 25.04 Ю 5 50 км 10/3 1000 м
[Sc Cs]
+12.9 -6.2 26 +11 +15 1009.8 912.0
09 25.04 ЮВ 2-10
{10}
50 км 10/10 600 м
[Cb cap]
+14.3 -8.2 20 +14 +14 1006.3 909.3
12 25.04 ЮВ 2 50 км 10/10 600 м
[Cb cap]
+13.9 -8.6 20 +14 +14 1007.4 908.2 +15.0
15 25.04 С 1 20 км 4/4 600 м
[Cb cap]
+7.4 -8.8 31 +7 +7 1008.3 908.7
18 25.04 З 2 20 км 4/4 600 м
[Cb cap]
+6.2 -5.8 42 +5 +5 1010.7 910.6
21 25.04 З 2
{11}
20 км 6/6 600 м
[Cb cap]
+5.9 -1.0 61 +4 +4 1012.9 912.5
00 26.04 штиль 0 50 км 6/4 600 м
[Cb cap Ci sp]
+2.8 -3.7 62 +2 +3 1015.9 914.1 +2.7
03 26.04 ЮЗ 2 50 км 4/4 1000 м
[Sc]
+10.9 -4.4 34 +10 +16 1013.8 914.9

 

Местоположение метеостанции Туран (Тува, Россия): широта 52.13 долгота 93.92 высота над уровнем моря 862 м.

В архиве по умолчанию представлена погода в Туране за последнюю неделю. Архивные данные за месяц целиком и за предыдущие месяцы, начиная с января 2011 года, Вы можете получить, выбрав интересующий диапазон дат из раскрывающегося списка и нажав кнопку "Ввод!".


*Определитесь, кто Вы:
робот инопланетянин человек

Внимание! Время в таблицах - всемирное. Для получения местного времени необходимо прибавить поправку, которая равна 7 ч.

Смотрите также архив погоды в соседних городах и на ближайших метеорологических станциях:

Погода в Кызыле (Тува, Россия) (61 км)
Погода в Нижнеусинском (Красноярский край, Россия) (63 км)
Погода в Оленьей Речке (Красноярский край, Россия) (88 км)
Погода в Хову-Аксы (Тува, Россия) (113 км)
Погода в Шагонаре (Тува, Россия) (114 км)
Погода в Сосновке (Тува, Россия) (117 км)
Погода в Усть-Усе (Красноярский край, Россия) (118 км)
Погода в Сарыг-Сепе (Тува, Россия) (133 км)
Погода в Тоора-Хем (Тува, Россия) (153 км)
Погода в Ермаковском (Красноярский край, Россия) (165 км)

Пояснения к столбцам:

Ветер - указаны скорость ветра в м/с - средняя за 10 мин, порывы в срок и между сроками (в фигурных скобках) и направление, откуда дует ветер: С - северный, СВ - северо-восточный, В - восточный, ЮВ - юго-восточный, Ю - южный, ЮЗ - юго-западный, З - западный, СЗ - северо-западный.
Видимость - горизонтальная дальность видимости в метрах или километрах. При видимости от 1 до 10 км при отсутствии осадков обычно наблюдается дымка, при ухудшении видимости до 1 км и менее - туман. В сухую погоду видимость может ухудшаться дымом, пылью или мглою.
Явления - указаны атмосферные явления, наблюдавшиеся в срок или в последний час перед сроком; фигурными скобками обозначены явления, наблюдавшиеся между сроками (за 1-3 часа до срока); квадратными скобками обозначены град или гололедные отложения с указанием их диаметра в мм.
Облачность - указаны через наклонную черту общая и нижняя облачность в баллах и высота нижней границы облаков в метрах; квадратными скобками обозначены формы облаков: Ci - перистые, Cs - перисто-слоистые, Cc - перисто-кучевые, Ac - высококучевые, As - высокослоистые, Sc - слоисто-кучевые, Ns - слоисто-дождевые, Cu - кучевые, Cb - кучево-дождевые. Подробнее классификацию облаков см. в Атласе облаков (PDF).
T - Температура воздуха - температура, измеренная на высоте 2 м над землей.
Td - Температура точки росы - температура, при понижении до которой содержащийся в воздухе водяной пар достигнет насыщения.
f - Относительная влажность воздуха - влажноcть воздуха, измеренная на высоте 2 м над землей.
Te - Эффективная температура - температура, которую ощущает одетый по сезону человек в тени. Характеристика душности погоды. При расчете учитывается влияние влажности воздуха и скорости ветра на теплоощущения человека.
Tes - Эффективная температура на солнце - температура, которую ощущает человек, с поправкой на солнечный нагрев. Характеристика знойности погоды. Зависит от высоты солнца над горизонтом, облачности и скорости ветра. Ночью, в пасмурную погоду, а также при ветре 12 м/с и более поправка равна нулю.
P - Атмосферное давление - приведенное к уровню моря атмосферное давление.
Po - Атмосферное давление - измеренное на уровне метеостанции атмосферное давление.
Tmin - Минимальная температура - минимум температуры воздуха на высоте 2 м над землей.
Tmax - Максимальная температура - максимум температуры воздуха на высоте 2 м над землей.
R - Количество осадков - Количество выпавших осадков за период времени, мм. При наведении курсора мыши на число - период времени, за который выпало указанное количество осадков.
R24 - Количество осадков - Количество выпавших осадков за 24 часа, мм.
S - Снежный покров - Высота снежного покрова, см. При наведении курсора мыши на число - состояние снежного покрова и степень покрытия местности в баллах.